Presure
181 196 186 189 200 197 195 207 201 209 195 189 181 214 183 166 205 203 216 195 180 169 209 209 204 143 201 211 183 208 186 163 155 152 197 231 173 222 223 197 214 222 239 231 271
180 189 194 193 195 193 198 180 197 210 177 160 166 200 179 199 190 181 175 169 166 208 212 214 205 159 211 199 188 199 175 203 199 164 173 224 205 222 219 215 219 211 230 265 274
181 181 178 132 184 198 188 200 182 199 198 192 212 196 207 187 179 249 198 172 218 170 206 207 205 201 196 197 185 194 199 204 197 203 208 206 213 220 216 218 224 230 223 221 260
176 189 178 193 194 196 190 184 191 204 163 207 157 194 196 218 196 202 142 166 205 172 193 212 159 191 196 138 199 196 199 187 178 195 204 206 202 194 217 210 219 154 220 218 258
182 183 189 187 191 144 172 198 153 179 190 156 202 200 194 197 185 229 179 176 214 193 161 195 198 213 196 195 195 192 189 196 199 205 196 204 199 198 217 209 208 219 226 216 249
190 178 147 192 184 184 194 202 198 195 189 190 205 200 199 213 187 197 251 182 213 212 203 205 196 153 206 175 196 193 192 181 189 191 192 200 208 201 202 211 203 215 219 209 276
188 185 193 195 195 199 171 202 187 199 194 194 187 201 219 210 169 192 147 225 210 149 161 219 210 182 200 190 177 195 186 191 199 194 192 196 196 209 195 210 200 218 203 204 217
191 185 196 202 196 197 179 192 187 201 201 167 215 226 193 204 203 208 170 244 228 214 184 178 174 197 167 200 196 188 194 190 194 186 196 190 200 205 199 209 198 208 209 206 219
197 206 202 197 189 201 193 203 204 196 188 202 224 222 220 224 232 175 210 146 206 205 215 216 186 210 201 191 198 191 204 174 185 198 194 189 192 196 203 201 199 203 217 199 199
205 206 205 207 207 205 210 214 223 177 212 219 219 215 205 218 211 246 239 233 224 180 204 194 205 227 206 178 184 210 125 189 185 191 192 190 193 193 192 206 197 196 203 210 191
207 224 225 225 226 223 218 233 181 229 215 229 220 253 306 248 266 265 244 232 222 199 215 226 159 233 198 195 171 206 191 187 190 200 189 191 196 196 187 205 199 193 198 206 212
230 229 207 198 221 229 222 204 230 231 226 225 264 193 292 265 281 255 236 222 227 216 229 216 202 204 218 208 212 197 185 142 183 202 192 187 194 195 198 195 202 189 205 210 208
228 213 222 222 236 232 244 237 217 225 219 211 319 298 280 239 268 249 243 234 220 219 214 223 200 200 209 215 201 206 207 198 187 203 193 188 192 192 196 187 201 190 193 213 206
227 231 224 216 226 234 235 248 240 223 291 193 292 289 281 266 269 259 237 224 226 217 222 211 220 204 225 208 202 213 206 194 185 185 194 178 189 190 188 180 203 186 191 198 217
238 242 225 219 214 236 210 207 262 207 326 312 290 275 278 262 262 243 242 251 236 219 226 230 220 209 229 223 205 198 207 204 194 199 193 177 179 173 184 191 200 185 186 188 203
270 239 255 252 262 279 284 310 293 308 286 312 288 274 265 257 227 242 232 244 241 251 208 228 206 220 225 212 216 194 209 207 198 187 194 180 193 180 186 194 194 189 184 196 200
292 288 301 298 287 296 300 287 287 287 313 280 284 269 254 239 233 249 234 242 235 240 212 214 208 228 223 216 211 191 208 205 203 188 196 187 186 192 191 190 190 195 175 188 195
262 290 314 259 300 267 288 310 302 300 316 307 273 272 257 236 229 232 228 225 216 217 214 209 243 229 219 212 214 196 209 209 207 201 184 190 186 193 191 190 191 196 187 188 185
306 319 322 315 310 303 311 311 308 299 306 299 272 264 249 243 233 223 245 233 219 255 250 246 241 230 222 213 207 208 212 208 197 202 190 182 183 185 180 188 188 194 184 173 189
306 323 340 342 343 340 339 337 303 299 279 295 255 262 247 256 254 228 234 220 82 97 251 235 180 219 221 210 203 209 201 213 212 196 187 198 174 180 178 185 188 197 183 180 179
336 343 354 341 342 338 341 340 357 292 273 289 288 271 250 252 246 260 227 116 261 236 245 235 231 223 218 191 207 210 197 216 213 206 196 184 189 187 188 190 188 193 186 179 181
359 366 352 347 349 350 339 339 335 346 268 274 281 267 247 256 248 256 227 239 251 240 248 239 232 217 215 183 166 210 208 213 216 210 208 204 178 187 188 192 188 189 181 186 179
376 370 363 355 349 345 340 332 339 329 357 269 282 276 248 263 258 253 234 238 246 240 247 229 241 223 226 222 218 206 206 212 215 206 214 199 184 190 186 187 189 190 189 185 178
379 370 345 340 339 345 399 458 341 268 347 272 277 278 251 256 254 259 245 240 240 186 236 231 226 229 231 219 221 217 218 223 217 226 210 208 199 184 182 188 189 189 197 186 195
364 349 333 336 355 385 452 433 408 315 338 277 275 274 274 257 264 263 255 235 246 243 238 234 233 232 225 222 230 216 207 210 213 215 225 215 218 202 188 185 191 190 195 202 192
353 328 325 321 363 389 435 420 397 315 330 281 271 273 274 269 257 231 244 248 232 244 256 237 232 234 231 226 223 224 222 211 216 220 217 223 222 211 213 197 183 188 197 198 187
315 331 342 344 364 384 415 402 352 83 251 326 255 275 273 146 231 260 247 248 227 243 252 221 250 238 227 228 224 220 223 225 221 221 231 239 214 219 205 197 203 199 190 193 205
Wind_Speed
80 74 74 72 70 68 63 64 57 66 66 77 82 53 85 82 59 55 51 63 70 59 55 53 58 68 54 51 63 50 62 61 59 61 47 36 54 39 41 49 43 42 42 43 19
82 81 81 78 75 70 69 82 65 70 81 90 80 74 85 71 80 74 59 76 74 58 54 50 52 61 46 55 58 54 62 45 45 58 56 38 41 36 38 40 42 39 39 23 12
83 82 81 65 74 79 68 77 71 68 56 64 68 63 59 77 88 51 68 77 51 66 57 52 52 50 55 54 61 57 51 43 43 43 43 42 34 33 36 40 40 38 31 37 4
84 89 83 86 86 83 77 70 70 79 91 77 66 63 67 62 63 62 69 64 59 62 65 50 60 58 51 72 54 55 52 51 52 45 42 40 37 41 35 39 37 52 32 31 10
90 90 93 90 89 67 78 86 72 70 82 84 70 60 69 57 72 67 61 85 55 51 50 62 56 50 52 56 57 54 56 50 46 38 44 40 37 37 34 38 35 33 33 29 12
97 88 73 96 84 82 90 91 85 80 80 76 75 71 59 66 80 62 63 88 63 56 62 60 52 56 52 61 56 56 55 53 46 44 46 40 35 33 33 34 36 32 32 25 10
100 97 102 103 102 96 75 91 83 87 76 70 64 72 83 81 88 70 67 58 67 67 48 54 56 62 53 58 60 54 56 50 40 44 46 43 35 35 34 30 35 27 28 26 28
101 97 105 104 100 99 79 89 74 89 88 76 89 85 65 73 74 67 74 57 57 64 76 68 60 63 56 52 55 57 54 49 41 48 41 44 32 36 30 30 36 26 23 25 28
109 109 107 104 95 105 96 100 98 81 78 82 92 83 81 79 82 65 77 70 68 66 60 56 64 55 58 61 55 60 53 51 48 40 39 46 35 34 29 30 35 31 23 25 27
111 112 112 113 113 106 107 107 109 72 94 95 83 79 81 75 76 69 67 63 58 54 67 70 60 49 56 68 64 55 20 47 53 38 40 45 41 36 29 30 34 32 25 22 25
110 112 115 117 115 113 110 111 76 99 88 98 85 77 70 78 71 67 67 63 60 75 62 57 45 44 64 66 60 49 50 50 55 36 40 44 45 36 33 31 32 35 30 21 23
107 117 100 93 115 115 112 87 103 94 89 83 84 72 66 65 66 67 66 65 59 64 59 60 61 57 59 58 56 56 54 58 56 39 35 47 44 37 31 31 30 37 22 20 23
108 101 107 102 104 108 104 102 90 91 82 77 68 63 62 70 63 70 65 62 64 62 64 59 66 64 60 56 59 55 50 52 55 38 37 46 43 36 33 33 30 35 33 21 23
105 107 109 105 106 106 105 101 99 76 84 63 65 60 60 61 62 68 63 66 62 66 66 65 59 64 57 58 60 55 55 51 55 35 37 50 48 37 37 37 31 34 32 24 26
105 108 107 106 100 106 87 82 93 76 61 58 58 60 61 61 59 63 62 64 63 71 66 61 65 63 57 57 61 59 56 50 51 43 39 55 54 43 40 36 31 35 35 33 18
112 104 103 103 107 106 97 82 74 68 51 53 54 60 62 61 64 62 62 60 63 63 72 62 69 61 60 62 56 64 55 51 51 46 42 60 49 49 42 38 36 31 37 26 16
105 106 99 94 93 87 81 78 69 58 54 53 53 61 64 63 62 60 61 58 59 60 68 68 68 63 60 60 60 67 58 53 49 51 47 58 45 48 44 40 39 30 39 33 25
95 93 86 90 85 85 78 74 65 53 58 56 57 61 65 65 64 62 65 65 66 67 69 68 60 65 64 62 60 65 58 55 50 50 51 49 41 48 43 45 40 32 33 31 32
88 87 84 84 81 79 77 69 61 56 55 60 60 62 66 67 67 68 64 63 67 54 55 54 59 66 67 66 62 57 55 60 55 49 50 48 45 54 50 45 45 38 39 39 30
80 76 78 76 75 76 77 67 62 56 58 63 65 63 67 67 70 71 68 67 15 23 53 57 45 59 65 65 66 62 62 62 52 54 52 48 57 59 56 48 50 41 42 42 38
71 69 70 71 70 71 67 64 63 60 62 65 67 69 67 70 72 75 71 33 59 59 55 59 64 64 67 57 66 64 62 62 58 57 58 54 52 58 60 53 52 46 42 45 39
64 58 61 64 63 62 62 61 58 61 68 69 71 70 70 71 73 73 72 64 59 60 57 59 63 69 69 55 47 66 64 62 58 58 57 53 59 61 63 55 54 53 46 45 46
52 50 52 56 55 57 59 57 60 61 65 71 73 73 72 71 71 75 70 64 61 60 57 61 54 68 72 71 69 68 64 63 62 60 58 58 60 60 65 65 60 57 52 51 51
45 43 48 50 53 52 43 39 59 47 64 73 73 73 73 73 73 75 72 67 63 48 61 63 62 63 69 70 69 68 65 62 61 60 63 62 66 67 69 70 68 62 58 54 48
38 37 44 43 40 37 32 39 49 61 63 74 72 74 76 75 73 73 77 66 62 63 66 66 66 66 68 71 71 74 69 68 66 63 57 63 64 68 72 71 73 69 60 56 56
29 35 41 44 36 33 33 39 49 62 62 75 77 76 76 75 75 71 69 67 64 67 70 71 69 69 71 74 74 70 71 72 71 70 58 64 60 66 69 75 67 71 63 61 58
29 33 35 34 33 33 34 40 49 5 45 67 71 74 74 29 62 72 69 68 67 67 69 60 76 76 74 74 74 70 75 74 73 70 68 66 65 66 71 74 72 73 71 61 61
Wind_Direction
269 280 270 270 281 277 272 283 274 287 263 256 262 287 267 269 265 270 269 265 267 267 265 266 270 273 276 280 278 286 280 280 281 282 289 298 288 302 302 300 301 307 326 318 299
268 275 280 277 279 277 280 268 268 287 258 268 258 282 269 274 268 269 266 271 269 264 263 262 267 273 270 275 278 282 278 288 287 285 288 297 295 308 309 305 306 305 326 314 277
269 270 272 264 270 281 268 281 265 278 274 261 292 273 281 261 271 274 266 273 263 259 260 260 264 265 269 273 274 278 282 285 287 291 294 295 300 313 313 311 319 327 319 323 252
266 274 269 277 278 280 274 268 271 283 266 288 267 269 271 286 263 266 255 265 263 264 266 255 273 265 265 274 272 276 280 278 278 288 291 296 295 292 312 306 319 289 318 325 229
270 271 274 274 276 265 274 280 269 257 272 266 280 271 262 264 259 280 271 273 258 259 265 261 261 251 258 264 269 273 276 281 282 288 287 294 295 295 313 304 310 325 328 333 250
268 268 269 273 270 271 277 279 275 278 278 272 281 271 264 279 258 279 273 267 257 252 251 254 258 266 251 272 264 269 272 273 277 284 285 290 298 291 305 306 304 324 325 317 306
267 268 270 271 272 272 257 273 270 276 272 272 260 276 287 278 267 281 252 262 256 252 263 246 248 268 252 259 270 265 270 273 277 279 283 288 292 302 294 304 298 328 306 311 319
266 265 267 270 270 271 261 270 266 274 276 262 280 280 259 270 274 269 267 257 253 250 269 273 258 254 268 255 258 263 265 270 272 274 278 283 291 300 297 302 295 306 308 309 315
264 265 265 265 266 269 268 270 271 265 260 272 280 281 277 275 273 258 266 259 257 251 248 250 255 247 249 255 253 257 260 268 268 270 276 279 283 290 297 289 290 298 326 291 297
261 263 264 265 266 269 269 271 273 257 274 276 276 276 274 272 251 248 251 249 245 259 248 257 244 239 246 262 257 248 267 262 266 265 272 276 281 283 282 286 285 289 296 311 285
262 264 263 265 267 267 269 272 259 273 273 275 278 277 259 263 249 241 244 244 244 256 241 240 264 242 245 249 256 248 250 254 260 262 269 274 276 279 274 286 277 283 293 293 305
261 262 264 266 267 266 270 264 271 271 273 274 272 261 252 249 241 238 241 243 240 243 246 238 239 239 238 239 240 243 253 270 260 258 259 267 272 275 280 282 276 279 308 315 298
259 262 263 265 263 266 267 268 271 273 272 273 263 252 247 247 237 240 238 238 240 239 242 238 240 239 251 238 241 240 238 242 255 250 253 262 267 266 275 272 275 272 281 326 295
258 260 262 265 264 265 266 270 270 268 275 255 256 246 241 241 234 237 237 236 236 239 239 239 235 238 236 234 241 240 236 243 254 249 249 257 262 262 267 268 273 271 278 288 328
258 258 260 262 266 264 266 268 274 269 262 255 247 242 236 234 233 235 236 236 235 235 236 233 234 235 235 235 240 238 239 237 242 241 242 253 258 261 263 265 274 264 272 277 299
262 259 264 265 268 268 268 266 265 261 255 252 243 238 233 230 237 232 236 232 234 234 240 233 240 236 232 233 234 240 236 234 237 239 239 250 251 261 261 263 266 253 266 281 301
262 262 263 263 263 262 262 260 258 253 253 243 237 233 230 230 231 229 231 230 227 230 237 236 240 233 229 233 232 243 234 230 231 236 234 245 250 257 258 261 260 254 265 271 281
259 260 262 260 260 258 257 256 254 250 248 242 231 229 227 228 230 228 229 229 231 231 235 239 225 227 229 230 231 236 234 231 228 232 239 243 249 251 252 257 256 254 254 265 270
260 260 260 261 259 258 256 253 251 243 240 238 228 225 225 226 227 231 229 226 231 231 226 225 223 224 226 229 229 232 235 234 230 231 232 241 238 250 251 251 255 251 251 266 265
260 260 258 257 255 254 254 252 244 236 230 233 224 222 223 227 227 228 228 229 265 266 223 222 230 224 226 230 232 231 234 235 226 229 230 233 241 247 252 248 251 249 249 256 261
255 256 257 254 253 251 251 249 245 229 223 229 226 222 219 221 224 228 227 250 224 223 225 219 222 226 228 232 231 231 236 232 227 226 227 230 230 240 247 245 247 248 247 253 255
256 258 255 253 251 249 247 245 239 235 219 222 222 219 217 220 222 225 224 226 227 220 220 221 221 225 229 233 237 230 232 232 228 228 227 225 233 239 244 245 244 247 240 247 254
256 253 251 250 249 246 243 240 235 229 225 217 220 219 215 222 221 222 220 221 226 220 219 220 219 225 229 230 229 230 233 232 231 229 226 220 226 230 241 244 243 243 238 241 252
249 246 246 246 246 244 244 235 228 224 223 215 218 218 215 219 219 220 222 220 220 233 220 220 219 223 228 229 230 234 232 228 233 231 224 221 221 229 239 243 244 243 243 238 244
242 240 241 243 249 249 236 227 220 219 220 213 216 216 218 218 221 220 222 219 221 222 224 225 225 224 225 230 231 230 234 235 235 235 231 227 226 225 231 242 243 244 244 245 241
235 236 240 241 245 241 228 218 213 215 215 210 214 215 217 219 219 219 221 222 220 220 223 225 226 226 223 227 232 233 232 236 237 239 231 236 231 223 228 234 251 250 241 243 249
234 233 236 238 241 233 219 211 208 155 210 212 214 214 216 223 220 221 220 223 224 227 225 224 228 228 225 226 229 232 233 236 237 237 237 238 225 225 222 229 236 244 251 242 243